Theta_e
345 347 349 350 350 351 354 355 356 357 356 354 353 353 353 354 353 352 353 352 352 353 352 353 351 353 352 350 348 350 352 352 349 352 351 348 353 353 353 351 350 353 352
343 344 344 348 350 348 348 352 353 353 354 354 353 353 352 353 354 354 354 354 353 352 353 353 352 353 352 351 352 348 349 350 350 351 352 351 350 348 349 349 352 353 351
337 339 340 345 344 348 348 345 347 345 347 350 352 352 353 352 353 353 354 354 354 354 353 353 353 353 353 352 352 350 349 349 350 348 348 351 351 349 349 353 354 354 351
333 333 335 338 339 341 346 347 346 346 345 344 343 338 341 344 350 353 353 353 354 354 354 354 355 355 354 354 354 353 350 350 350 348 345 343 346 348 350 351 353 351 345
329 334 334 332 335 339 342 344 345 346 347 348 348 347 347 348 350 353 351 353 354 354 354 354 355 356 355 355 355 354 353 351 350 348 345 343 344 345 349 349 349 350 350
328 331 332 333 334 336 337 340 341 341 342 344 347 348 349 348 348 346 344 345 344 345 355 356 354 355 355 355 355 356 355 352 351 348 346 344 345 346 348 349 349 348 342
326 328 330 328 327 328 331 334 337 339 342 343 343 344 345 347 345 348 350 349 349 347 345 352 358 356 355 355 354 355 355 354 352 350 347 346 346 347 349 350 349 347 346
322 327 327 326 326 326 326 328 329 332 336 339 342 344 345 343 344 347 348 349 347 347 348 349 347 354 356 355 354 355 354 354 354 352 350 350 347 346 352 350 349 350 349
323 323 322 322 325 325 326 326 325 327 328 333 336 339 343 344 343 342 343 347 348 346 347 350 351 350 351 355 356 355 355 354 353 351 351 351 350 347 349 349 349 350 350
321 321 320 320 321 324 323 323 322 325 330 334 335 334 340 341 334 339 342 344 346 347 346 346 346 351 353 351 356 356 355 355 354 353 351 351 349 347 349 350 350 349 350
319 319 318 318 320 321 324 323 323 324 327 330 332 333 334 336 334 337 340 343 343 346 346 342 339 341 349 353 355 354 355 356 354 353 353 353 353 349 349 350 351 350 349
317 318 317 317 318 320 322 323 324 325 328 330 332 332 335 335 337 339 340 340 340 342 340 339 341 341 339 341 348 350 354 356 355 354 354 354 354 354 353 351 350 350 348
316 317 317 317 318 319 320 323 326 328 329 330 332 334 334 333 335 335 337 336 338 334 333 335 337 337 337 337 339 344 349 351 351 354 354 354 353 353 352 350 349 351 350
316 316 317 317 318 319 321 324 328 329 330 331 332 333 333 332 331 334 333 335 334 333 332 332 333 334 335 337 337 340 344 349 348 352 354 353 352 351 350 350 351 351 352
316 316 316 318 318 320 322 325 328 329 331 332 332 332 332 332 332 331 332 332 332 332 331 332 332 333 335 337 338 340 345 346 345 347 351 352 351 351 351 351 351 352 352
316 316 316 318 320 321 323 325 328 330 332 332 331 330 330 328 329 329 330 330 330 331 331 331 332 333 334 334 336 338 339 341 345 347 349 350 350 351 351 351 350 351 350
316 316 316 317 320 322 323 325 327 328 330 330 328 326 326 328 328 329 330 329 331 330 329 330 332 334 334 334 333 335 337 337 339 345 347 348 349 349 349 347 346 349 348
316 315 314 315 318 318 319 319 321 325 325 325 321 319 326 327 329 330 330 329 327 328 330 331 332 332 332 332 332 334 334 336 340 342 344 345 346 342 345 346 347 347 348
316 315 314 315 315 315 315 317 317 319 320 321 316 313 318 322 323 323 323 325 327 327 328 330 330 331 332 332 331 333 335 336 337 336 338 343 344 339 341 344 346 346 346
314 314 313 314 314 314 313 312 313 315 315 314 314 310 311 314 313 312 313 316 316 320 323 325 328 326 326 327 331 333 332 335 336 337 337 338 341 341 341 343 344 344 342
314 313 312 312 312 312 311 311 311 311 310 311 311 309 309 309 310 309 308 309 310 311 314 319 322 319 318 322 325 320 327 327 326 330 334 333 336 335 333 335 341 341 340
314 313 312 311 311 310 311 309 309 309 309 308 308 307 307 307 307 307 307 306 307 308 310 311 315 313 311 312 309 319 316 314 316 321 322 329 332 331 331 331 334 337 337
313 313 312 311 310 310 310 308 308 307 307 306 306 306 306 306 305 305 304 304 304 305 306 307 309 310 307 307 307 306 306 312 312 314 314 323 327 331 332 334 334 336 335
312 313 312 311 310 308 309 308 308 306 306 306 305 305 305 305 306 305 305 303 303 302 302 303 304 306 305 304 304 304 305 306 309 311 315 321 323 327 330 334 335 334 333
311 311 313 311 311 310 309 308 307 307 307 307 305 305 305 305 305 304 304 303 302 302 301 300 301 302 302 302 301 303 305 305 308 312 314 316 318 322 326 329 333 331 332
312 311 310 311 312 311 311 309 309 309 307 306 306 305 305 304 304 304 303 302 301 301 300 299 299 300 299 299 300 302 304 305 307 310 312 313 314 316 320 324 327 331 332
Wind_Speed
20 17 12 11 10 10 10 11 20 22 20 21 20 18 17 17 21 21 23 24 26 26 25 24 23 22 21 21 25 27 22 11 2 2 6 15 18 17 19 17 19 19 16
19 18 17 13 10 10 8 10 11 5 12 17 18 19 22 22 21 22 24 27 28 29 29 28 27 25 25 25 25 26 26 23 9 5 3 3 9 13 14 14 17 16 15
21 19 19 17 16 13 12 11 10 8 7 9 8 12 17 20 22 23 24 24 26 27 29 27 29 27 24 28 30 30 28 26 18 12 12 9 10 9 10 16 15 17 14
17 17 19 21 22 20 16 14 13 14 15 14 13 14 18 19 19 21 23 25 26 27 28 29 29 29 29 30 30 30 29 28 26 20 20 22 18 16 10 15 19 22 20
20 19 19 21 23 22 20 17 15 13 14 13 14 16 18 18 17 14 18 21 25 27 29 29 29 29 29 31 31 32 31 31 30 25 19 15 20 18 17 18 15 18 18
20 19 19 18 20 20 20 20 18 16 15 15 15 16 18 18 17 16 19 23 21 20 25 31 31 29 29 30 32 34 32 29 29 25 21 19 21 18 20 21 16 14 5
18 19 17 20 21 21 21 20 19 19 18 18 17 17 17 17 17 18 17 18 20 22 23 23 25 26 28 31 32 34 36 36 34 30 28 25 25 28 24 20 20 18 18
19 17 17 20 22 23 22 21 22 22 21 20 20 19 19 20 18 17 16 16 19 21 23 23 26 28 28 30 31 34 34 36 39 37 37 34 33 31 20 15 13 17 16
15 20 22 22 22 23 22 22 25 25 25 25 24 22 20 23 22 22 19 19 21 23 21 21 24 28 29 29 31 34 33 37 35 34 36 40 37 34 31 26 24 20 12
19 20 23 23 23 23 25 26 26 23 22 22 25 26 25 25 26 23 20 19 21 22 20 21 22 24 29 30 30 33 29 37 31 31 30 33 37 40 35 34 30 20 14
22 20 22 23 25 24 25 26 27 25 22 24 25 29 28 27 28 26 20 20 20 17 16 21 22 21 24 22 32 38 39 32 30 31 32 31 32 39 43 40 37 32 23
23 21 21 22 22 22 23 27 27 24 23 22 24 28 27 24 24 24 17 9 7 10 17 22 21 21 23 27 29 31 32 37 32 32 29 28 30 35 34 35 38 38 39
21 22 22 23 22 22 23 24 24 22 21 21 19 22 24 17 17 7 11 13 7 14 17 19 23 25 26 26 27 30 34 29 29 28 27 29 29 32 31 33 30 31 32
21 22 22 21 24 24 23 21 23 23 20 20 19 16 14 20 14 7 11 11 14 16 20 22 23 24 24 26 26 28 31 32 31 28 29 28 26 27 31 31 31 34 30
20 22 21 19 22 24 22 23 25 27 21 20 21 19 17 18 22 14 15 16 15 18 23 24 24 26 24 23 24 23 24 29 28 32 31 28 26 26 28 30 33 30 23
20 20 21 22 22 19 20 26 26 23 23 15 12 12 11 8 13 16 18 18 18 18 20 22 22 22 21 22 22 24 26 22 26 27 33 35 28 28 28 28 32 29 25
16 18 20 20 18 17 20 20 22 28 25 22 22 26 24 18 17 14 16 17 16 15 13 18 19 20 20 23 23 23 23 27 26 24 25 29 27 29 30 28 29 27 25
14 19 19 19 17 19 19 21 19 17 20 21 27 31 29 20 20 21 19 14 11 10 12 16 20 21 23 21 22 24 24 27 25 22 24 22 31 22 16 20 26 23 20
12 15 20 16 16 18 19 18 18 20 19 20 28 35 29 23 21 26 26 20 19 17 15 16 20 21 22 22 24 26 27 26 22 19 15 14 23 28 29 29 25 28 25
13 15 17 15 17 17 17 19 18 18 18 20 19 27 29 24 26 25 26 24 25 24 24 19 14 19 22 25 28 23 27 24 16 11 6 6 10 9 4 13 22 19 22
8 12 14 16 15 14 16 16 16 17 18 18 18 25 23 22 21 22 24 26 24 25 26 23 24 25 26 24 18 26 22 22 20 12 6 1 3 12 7 3 4 12 17
4 8 11 12 12 16 15 15 16 16 17 18 18 19 22 21 21 21 21 24 25 25 23 27 24 24 24 24 24 19 24 26 25 23 19 12 6 6 5 7 4 7 4
6 4 7 8 10 12 10 14 16 16 15 18 18 17 19 18 19 21 20 21 22 25 23 21 22 21 25 24 24 25 26 22 24 21 19 18 13 9 10 6 4 8 9
2 5 7 8 8 8 9 11 9 11 13 13 15 19 17 19 18 21 22 22 20 23 23 22 21 20 18 22 25 24 24 25 23 21 21 17 16 14 13 10 4 6 13
6 9 1 7 4 3 4 4 3 3 10 10 15 14 15 18 17 20 21 21 19 19 23 23 21 20 19 22 24 22 22 22 21 19 19 17 14 11 10 10 13 16 20
9 6 8 10 4 4 4 6 0 2 5 7 12 14 15 18 16 19 17 22 21 19 19 23 22 20 19 25 26 22 22 25 24 19 14 10 9 7 9 13 14 9 7
Wind_Direction
31 29 20 11 350 331 314 294 272 267 263 260 262 269 267 261 265 270 263 262 262 262 262 261 263 260 262 264 263 268 280 302 215 334 52 181 188 189 184 202 215 216 237
15 13 13 3 347 335 309 295 280 273 255 258 262 262 259 261 259 259 262 264 266 269 268 264 265 264 254 257 259 261 265 270 276 275 257 223 213 217 225 226 212 223 254
5 4 4 3 356 333 316 308 299 302 282 264 269 276 274 270 263 262 262 262 263 265 267 265 268 269 262 255 256 258 258 260 252 247 278 273 267 270 255 234 226 236 249
358 355 351 348 344 340 331 316 311 299 294 282 278 273 278 277 276 272 269 267 264 263 263 262 261 263 263 263 261 260 263 260 255 250 250 258 268 275 271 239 228 236 249
356 355 343 334 336 338 333 321 307 309 304 293 288 285 282 282 284 289 285 279 277 273 269 267 263 259 262 261 256 259 263 258 258 256 254 243 252 263 254 253 253 248 235
355 348 353 358 359 353 344 340 322 313 303 300 301 298 290 289 293 294 277 286 287 285 281 269 264 262 260 257 256 254 257 255 247 245 251 245 252 249 250 250 245 234 249
356 347 347 346 345 344 344 340 340 339 326 311 302 297 297 293 294 297 294 290 290 287 280 282 277 263 263 258 257 255 252 253 254 251 244 242 245 241 243 238 241 235 244
349 350 352 345 340 334 329 327 325 329 327 319 312 303 301 295 293 293 297 284 287 286 286 283 275 275 271 260 259 261 253 251 250 247 246 251 253 248 233 230 234 243 254
347 343 340 333 327 324 322 319 316 314 312 312 312 309 302 298 297 296 292 289 290 291 287 284 278 276 273 271 257 255 258 260 258 256 255 255 254 248 245 250 241 232 229
343 338 332 326 324 315 312 313 311 307 299 302 301 299 295 290 296 298 296 289 287 289 294 295 296 286 280 269 258 251 244 247 246 249 253 251 251 247 244 247 243 230 227
337 337 329 322 319 317 310 310 310 307 297 296 294 295 293 289 294 299 296 291 287 286 288 301 313 302 286 288 264 256 246 251 245 245 247 247 249 247 244 240 237 241 231
337 332 326 325 316 311 312 312 311 303 294 289 290 291 291 296 300 296 286 283 300 299 304 308 309 316 307 287 282 275 266 255 239 237 232 234 236 242 243 242 245 243 242
335 327 325 326 322 317 320 321 303 298 290 286 283 281 294 317 280 307 307 301 310 307 311 310 310 307 306 303 297 284 267 269 244 232 229 232 232 237 241 246 246 245 245
328 322 321 323 327 328 325 318 315 307 302 293 299 302 314 316 307 327 281 296 319 315 313 310 313 314 317 316 306 296 276 260 250 243 240 240 236 232 234 237 235 239 236
329 327 322 328 326 328 326 328 323 319 314 303 299 297 284 277 285 292 295 297 302 307 309 310 312 316 314 314 306 302 291 271 256 241 241 238 224 222 223 229 235 235 224
328 327 325 327 322 318 329 334 341 343 340 342 9 3 343 314 289 289 292 292 295 298 303 302 302 301 301 308 308 299 301 298 264 251 244 233 227 219 222 225 234 227 225
341 337 336 335 332 340 344 344 335 357 13 44 35 24 16 13 8 340 324 308 305 307 304 298 289 287 289 297 301 294 289 290 288 270 264 243 227 227 235 237 243 236 221
355 2 348 340 343 354 355 351 348 4 5 11 15 18 20 20 20 18 6 354 342 343 343 315 303 293 288 297 300 290 294 284 284 271 246 244 244 252 246 253 240 227 215
356 3 0 345 351 2 359 0 4 11 14 12 13 14 21 27 34 34 24 13 2 3 350 336 328 317 306 308 306 300 298 275 249 292 290 242 241 230 231 228 224 216 219
19 12 9 4 6 8 14 12 11 13 14 16 25 20 15 21 24 18 16 14 11 1 5 344 352 350 5 2 336 318 328 273 243 235 250 218 202 197 201 247 218 212 227
31 33 21 16 9 10 22 18 15 24 23 18 22 22 19 25 21 18 14 11 8 4 355 355 12 20 24 13 344 353 359 5 12 22 49 70 99 144 148 58 107 224 244
31 49 44 33 25 18 29 21 24 24 23 18 17 16 20 22 18 14 13 9 8 8 9 10 14 17 14 13 10 1 1 357 351 351 350 9 26 62 131 106 31 357 279
257 108 82 63 45 24 36 39 34 29 28 24 18 18 18 19 14 11 8 4 1 4 10 12 19 12 8 12 8 6 5 354 338 339 323 335 347 345 342 10 287 284 274
51 187 126 111 66 48 24 27 33 36 33 32 19 19 20 15 9 9 5 4 6 3 7 7 5 12 11 358 358 360 356 351 346 335 324 323 321 327 323 335 208 217 234
15 5 79 146 116 89 56 23 25 53 43 36 26 19 15 11 12 12 7 2 2 0 3 6 2 359 352 352 352 350 347 352 351 335 320 307 297 307 300 303 221 223 231
351 26 4 9 248 221 227 214 85 130 81 67 36 22 13 14 14 11 8 10 8 8 3 8 7 359 349 351 354 350 351 352 353 354 347 341 324 316 294 286 285 286 298